Tracking 25744 objects as of 24-Jun-2022
HD Live streaming from Space Station
objects crossing your sky now

INTELSAT 505

Track INTELSAT 505 now!
INTELSAT 505 is classified as:


NORAD ID: 13595
Int'l Code: 1982-097A
Perigee: 36,242.8 km
Apogee: 36,406.6 km
Inclination: 13.9 °
Period: 1,463.3 minutes
Semi major axis: 42695 km
RCS: 0.1428 m2 (medium)
Launch date: September 28, 1982
Source: International Telecommunications Satellite Organization (ITSO)
Launch site: AIR FORCE EASTERN TEST RANGE (AFETR)
aabbcc
Your satellite tracking list
Your tracking list is empty




NASA's NSSDC Master Catalog

Two Line Element Set (TLE):
1 13595U 82097A   22175.34744736 -.00000195  00000-0  00000-0 0  9990
2 13595  13.9069 341.5718 0019183  33.8190 151.5951  0.98407085113720
Source of the keplerian elements: AFSPC